TimeCST,TemperatureF,Dew PointF,Humidity,Sea Level PressureIn,VisibilityMPH,Wind Direction,Wind SpeedMPH,Gust SpeedMPH,PrecipitationIn,Events,Conditions,WindDirDegrees,DateUTC
12:15 AM,69.8,63.5,80,30.22,10.0,ENE,5.8,-,N/A,,Overcast,60,2012-11-16 06:15:00
12:35 AM,70.0,63.7,80,30.22,10.0,NE,4.6,-,N/A,,Overcast,50,2012-11-16 06:35:00
12:55 AM,70.0,64.0,81,30.22,10.0,ENE,4.6,-,N/A,,Overcast,60,2012-11-16 06:55:00
1:15 AM,69.1,64.0,84,30.22,7.0,North,5.8,-,N/A,,Overcast,360,2012-11-16 07:15:00
1:35 AM,65.8,62.2,88,30.22,5.0,NNE,5.8,-,N/A,,Overcast,20,2012-11-16 07:35:00
2:15 AM,65.8,62.6,89,30.21,10.0,North,3.5,-,N/A,,Overcast,10,2012-11-16 08:15:00
2:35 AM,65.8,62.1,88,30.21,10.0,NNE,4.6,-,N/A,,Overcast,20,2012-11-16 08:35:00
3:15 AM,67.1,57.4,71,30.21,10.0,NNE,10.4,-,N/A,,Overcast,30,2012-11-16 09:15:00
3:35 AM,67.1,56.3,68,30.21,10.0,NNE,9.2,-,N/A,,Overcast,30,2012-11-16 09:35:00
3:55 AM,67.1,55.8,67,30.20,10.0,NE,8.1,-,N/A,,Overcast,40,2012-11-16 09:55:00
4:15 AM,67.3,55.4,66,30.21,10.0,NNE,6.9,-,N/A,,Overcast,30,2012-11-16 10:15:00
4:35 AM,67.5,54.9,64,30.20,10.0,NNE,9.2,-,N/A,,Overcast,30,2012-11-16 10:35:00
4:55 AM,67.5,54.1,62,30.20,10.0,NE,10.4,-,N/A,,Overcast,40,2012-11-16 10:55:00
5:15 AM,67.5,53.4,61,30.21,10.0,NNE,9.2,-,N/A,,Overcast,30,2012-11-16 11:15:00
6:15 AM,68.0,51.3,55,30.22,10.0,NE,11.5,16.1,N/A,,Overcast,40,2012-11-16 12:15:00
6:55 AM,67.8,50.9,55,30.24,10.0,NNE,9.2,-,N/A,,Overcast,30,2012-11-16 12:55:00
7:15 AM,67.6,51.3,56,30.24,10.0,NE,6.9,-,N/A,,Overcast,40,2012-11-16 13:15:00
7:35 AM,67.6,51.3,56,30.24,10.0,NNE,8.1,-,N/A,,Overcast,30,2012-11-16 13:35:00
7:55 AM,68.0,51.8,56,30.25,10.0,NNE,8.1,-,N/A,,Overcast,30,2012-11-16 13:55:00
8:15 AM,68.2,51.3,55,30.25,10.0,NE,12.7,-,N/A,,Overcast,40,2012-11-16 14:15:00
8:35 AM,68.4,50.4,53,30.26,10.0,NNE,12.7,18.4,N/A,,Overcast,30,2012-11-16 14:35:00
8:55 AM,68.5,50.0,52,30.27,10.0,NE,10.4,17.3,N/A,,Overcast,40,2012-11-16 14:55:00
9:15 AM,69.8,50.5,50,30.27,10.0,NE,12.7,-,N/A,,Overcast,40,2012-11-16 15:15:00
9:35 AM,70.2,52.0,52,30.29,10.0,NE,15.0,21.9,N/A,,Overcast,50,2012-11-16 15:35:00
9:55 AM,70.2,51.3,51,30.30,10.0,NE,10.4,-,N/A,,Overcast,40,2012-11-16 15:55:00
10:15 AM,70.0,50.0,49,30.30,10.0,NE,11.5,-,N/A,,Overcast,40,2012-11-16 16:15:00
10:35 AM,70.9,49.1,46,30.30,10.0,NNE,12.7,-,N/A,,Overcast,30,2012-11-16 16:35:00
10:55 AM,71.6,47.5,42,30.30,10.0,NE,9.2,-,N/A,,Overcast,50,2012-11-16 16:55:00
11:15 AM,71.6,49.3,45,30.30,10.0,NE,12.7,17.3,N/A,,Overcast,40,2012-11-16 17:15:00
11:35 AM,71.4,50.4,47,30.30,10.0,NE,11.5,16.1,N/A,,Overcast,40,2012-11-16 17:35:00
11:55 AM,71.6,48.7,44,30.29,10.0,NNE,11.5,-,N/A,,Overcast,20,2012-11-16 17:55:00
12:15 PM,71.6,43.9,37,30.28,10.0,NE,15.0,-,N/A,,Overcast,40,2012-11-16 18:15:00
12:35 PM,71.6,44.2,37,30.28,10.0,NE,12.7,16.1,N/A,,Overcast,40,2012-11-16 18:35:00
12:55 PM,71.6,43.0,36,30.27,10.0,ENE,12.7,-,N/A,,Overcast,70,2012-11-16 18:55:00
1:15 PM,72.0,43.0,35,30.26,10.0,NNE,13.8,-,N/A,,Overcast,30,2012-11-16 19:15:00
1:35 PM,71.8,42.4,35,30.25,10.0,NE,12.7,18.4,N/A,,Overcast,40,2012-11-16 19:35:00
1:55 PM,71.8,41.2,33,30.25,10.0,NE,11.5,18.4,N/A,,Overcast,50,2012-11-16 19:55:00
2:15 PM,72.3,40.3,31,30.25,10.0,NE,9.2,-,N/A,,Overcast,40,2012-11-16 20:15:00
2:35 PM,72.5,38.5,29,30.24,10.0,ENE,12.7,18.4,N/A,,Overcast,60,2012-11-16 20:35:00
2:55 PM,72.9,39.7,30,30.24,10.0,ENE,11.5,16.1,N/A,,Overcast,70,2012-11-16 20:55:00
3:15 PM,72.7,38.5,29,30.24,10.0,ENE,12.7,17.3,N/A,,Overcast,70,2012-11-16 21:15:00
3:35 PM,71.6,37.0,28,30.25,10.0,ENE,10.4,-,N/A,,Overcast,60,2012-11-16 21:35:00
3:55 PM,71.6,37.0,28,30.25,10.0,ENE,9.2,-,N/A,,Overcast,70,2012-11-16 21:55:00
4:15 PM,71.6,36.5,28,30.25,10.0,ENE,10.4,-,N/A,,Overcast,70,2012-11-16 22:15:00
4:35 PM,71.1,37.2,29,30.25,10.0,ENE,10.4,-,N/A,,Overcast,60,2012-11-16 22:35:00
4:55 PM,70.7,37.2,29,30.26,10.0,ENE,6.9,-,N/A,,Overcast,70,2012-11-16 22:55:00
5:15 PM,70.3,37.9,31,30.27,10.0,ENE,8.1,-,N/A,,Overcast,70,2012-11-16 23:15:00
5:35 PM,70.0,38.8,32,30.27,10.0,East,5.8,-,N/A,,Overcast,80,2012-11-16 23:35:00
5:55 PM,69.4,38.7,32,30.26,10.0,East,8.1,-,N/A,,Overcast,80,2012-11-16 23:55:00
6:15 PM,69.3,39.4,34,30.26,10.0,East,5.8,-,N/A,,Overcast,80,2012-11-17 00:15:00
6:35 PM,68.9,41.0,36,30.27,10.0,East,4.6,-,N/A,,Overcast,80,2012-11-17 00:35:00
6:55 PM,68.9,40.3,35,30.28,10.0,East,3.5,-,N/A,,Overcast,80,2012-11-17 00:55:00
7:15 PM,68.2,41.5,38,30.29,10.0,East,3.5,-,N/A,,Overcast,90,2012-11-17 01:15:00
7:55 PM,67.5,43.7,42,30.29,10.0,East,5.8,-,N/A,,Overcast,80,2012-11-17 01:55:00
8:15 PM,67.5,42.8,41,30.30,10.0,East,3.5,-,N/A,,Overcast,80,2012-11-17 02:15:00
8:55 PM,66.6,43.7,44,30.31,10.0,Calm,Calm,-,N/A,,Mostly Cloudy,0,2012-11-17 02:55:00
9:15 PM,65.5,44.4,46,30.31,10.0,Calm,Calm,-,N/A,,Scattered Clouds,0,2012-11-17 03:15:00
9:55 PM,61.0,45.3,56,30.32,10.0,Calm,Calm,-,N/A,,Clear,0,2012-11-17 03:55:00
10:15 PM,61.2,45.0,55,30.32,10.0,NNW,3.5,-,N/A,,Scattered Clouds,330,2012-11-17 04:15:00
10:35 PM,58.8,45.3,61,30.31,10.0,NNE,3.5,-,N/A,,Clear,30,2012-11-17 04:35:00
10:55 PM,60.8,45.9,58,30.30,10.0,NNE,4.6,-,N/A,,Mostly Cloudy,30,2012-11-17 04:55:00
11:15 PM,62.2,47.1,58,30.30,10.0,NNE,4.6,-,N/A,,Overcast,30,2012-11-17 05:15:00
11:55 PM,62.8,47.3,57,30.30,10.0,North,3.5,-,N/A,,Scattered Clouds,360,2012-11-17 05:55:00